Location: Beetenbrück
(52.8113°N, 9.5946°E)
Time: 22:19:50
(UTC+00:00)

Cosmos 1470 Rocket - Pass Details

Date: 14 April 2026
Orbit: 596 x 627 km, 82.5° (Epoch: 12 May)

Event Time Altitude Azimuth Distance (km) Brightness Sun altitude
Rises 18:59:14 0° 193° (SSW) 2,879 6.9 -6.5°
Reaches altitude 10° 19:01:27 10° 194° (SSW) 1,974 6.0 -6.8°
Maximum altitude 19:05:50 79° 281° (W) 630 3.7 -7.4°
Drops below altitude 10° 19:10:12 10° 9° (N) 1,970 6.4 -7.9°
Sets 19:12:25 0° 11° (N) 2,874 7.2 -8.2°
